Rolla, ND

8:49 AM CDT on August 29, 2016 (GMT -0500)
Rolla

Weather History for K06D - March, 2014

Change the Weather History Date:

Saturday, March 1, 2014

  Actual Average (KRUG) Record (KRUG)
Temperature  
Mean Temperature -19 °F -  
Max Temperature -11 °F 27 °F 53 °F (1992)
Min Temperature -27 °F 8 °F -30 °F (1962)
Degree Days  
Heating Degree Days 84    
Moisture  
Dew Point -29 °F    
Average Humidity 62    
Maximum Humidity 76    
Minimum Humidity 45    
Precipitation  
Precipitation 0.00 in - - ()
Sea Level Pressure  
Sea Level Pressure 30.39 in    
Wind  
Wind Speed 15 mph (NW)    
Max Wind Speed 22 mph    
Max Gust Speed 25 mph    
Visibility 10 miles    
Events Rain    
Averages and records for this station are not official NWS values.
T = Trace of Precipitation, MM = Missing Value Source: NWS Daily Summary

Daily Weather History Graph

Daily Weather History Graph

Search for Another Location

Airport or City:

Trip Planner

Search our weather history database for the weather conditions in past years. The results will help you decide how hot, cold, wet, or windy it might be!

Date:

Astronomy

Mar. 01, 2014 Rise Set
Actual Time 7:20 AM CST 6:22 PM CST
Civil Twilight 6:48 AM CST 6:53 PM CST
Nautical Twilight 6:12 AM CST 7:30 PM CST
Astronomical Twilight 5:35 AM CST 8:07 PM CST
Moon 7:10 AM CST (3/1) 7:18 PM CST (3/1)
Length of Visible Light 12h 05m
Length of Day
11h 01m
New Moon, 0% of the Moon is Illuminated
Mar 1
New Moon
Mar 8
First Quarter
Mar 16
Full
Mar 23
Last Quarter
Mar 30
New

Hourly Weather History & Observations

Time (CST) Temp. Windchill Dew Point Humidity Pressure Visibility Wind Dir Wind Speed Gust Speed Precip Events Conditions
12:15 AM -18.4 °F -44.5 °F -25.6 °F 70% 30.28 in 10.0 mi NW 17.3 mph - N/A   Clear
12:35 AM -18.4 °F -45.9 °F -25.6 °F 70% 30.29 in 10.0 mi NW 19.6 mph - N/A   Partly Cloudy
12:55 AM -18.4 °F -43.7 °F -27.4 °F 63% 30.29 in 10.0 mi NW 16.1 mph - N/A   Partly Cloudy
1:15 AM -18.4 °F -44.5 °F -27.4 °F 63% 30.30 in 10.0 mi NW 17.3 mph - N/A   Partly Cloudy
1:35 AM -18.4 °F -43.7 °F -27.4 °F 63% 30.30 in 10.0 mi NW 16.1 mph - N/A   Partly Cloudy
1:55 AM -18.4 °F -45.2 °F -27.4 °F 63% 30.30 in 10.0 mi NW 18.4 mph - N/A   Clear
2:15 AM -20.2 °F -46.8 °F -27.4 °F 69% 30.31 in 10.0 mi NW 17.3 mph - N/A   Partly Cloudy
2:35 AM -20.2 °F -45.2 °F -27.4 °F 69% 30.31 in 10.0 mi NW 15.0 mph - N/A   Partly Cloudy
2:55 AM -20.2 °F -46.0 °F -29.2 °F 63% 30.30 in 10.0 mi NW 16.1 mph 21.9 mph N/A   Unknown
3:15 AM -20.2 °F -46.0 °F -29.2 °F 63% 30.31 in 10.0 mi NW 16.1 mph - N/A   Unknown
3:35 AM -22.0 °F -49.1 °F -29.2 °F 69% 30.31 in 10.0 mi NW 17.3 mph - N/A   Unknown
3:55 AM -22.0 °F -49.1 °F -29.2 °F 69% 30.32 in 10.0 mi NW 17.3 mph - N/A   Unknown
4:15 AM -22.0 °F -49.9 °F -29.2 °F 69% 30.33 in 10.0 mi NW 18.4 mph - N/A   Unknown
4:35 AM -22.0 °F -48.4 °F -29.2 °F 69% 30.34 in 2.5 mi NNW 16.1 mph - N/A Rain Light Freezing Rain
4:55 AM -22.0 °F -49.1 °F -29.2 °F 69% 30.35 in 9.0 mi NNW 17.3 mph - N/A   Unknown
5:15 AM -22.0 °F -48.4 °F -31.0 °F 63% 30.36 in 7.0 mi NW 16.1 mph - N/A   Unknown
5:35 AM -23.8 °F -49.8 °F -31.0 °F 69% 30.36 in 5.0 mi NNW 15.0 mph - N/A   Haze
5:55 AM -23.8 °F -49.8 °F -31.0 °F 69% 30.37 in 9.0 mi NNW 15.0 mph - N/A   Unknown
6:15 AM -25.6 °F -49.2 °F -31.0 °F 76% 30.38 in 10.0 mi NNW 11.5 mph - N/A   Unknown
6:35 AM -25.6 °F -46.8 °F -31.0 °F 76% 30.38 in 7.0 mi NW 9.2 mph - N/A   Unknown
6:55 AM -25.6 °F -46.8 °F -31.0 °F 76% 30.39 in 10.0 mi NW 9.2 mph - N/A   Unknown
7:15 AM -25.6 °F -48.0 °F -32.8 °F 69% 30.39 in 10.0 mi NW 10.4 mph - N/A   Unknown
7:35 AM -27.4 °F -51.4 °F -34.6 °F 69% 30.40 in 10.0 mi NW 11.5 mph - N/A   Unknown
7:55 AM -27.4 °F -51.4 °F -34.6 °F 69% 30.41 in 10.0 mi NW 11.5 mph - N/A   Unknown
8:15 AM -25.6 °F -49.2 °F -34.6 °F 63% 30.42 in 10.0 mi NW 11.5 mph - N/A   Unknown
8:35 AM -25.6 °F -50.2 °F -32.8 °F 69% 30.42 in 10.0 mi NW 12.7 mph - N/A   Unknown
8:55 AM -25.6 °F -49.2 °F -31.0 °F 76% 30.42 in 10.0 mi NNW 11.5 mph - N/A   Clear
9:15 AM -23.8 °F -50.7 °F -31.0 °F 69% 30.42 in 10.0 mi NNW 16.1 mph - N/A   Clear
9:35 AM -22.0 °F -48.4 °F -31.0 °F 63% 30.42 in 10.0 mi NNW 16.1 mph - N/A   Clear
9:55 AM -22.0 °F -51.3 °F -31.0 °F 63% 30.43 in 10.0 mi NW 20.7 mph 24.2 mph N/A   Clear
10:15 AM -22.0 °F -50.6 °F -31.0 °F 63% 30.44 in 10.0 mi NW 19.6 mph 25.3 mph N/A   Clear
10:35 AM -22.0 °F -51.9 °F -31.0 °F 63% 30.44 in 10.0 mi NNW 21.9 mph - N/A   Clear
10:55 AM -20.2 °F -48.9 °F -31.0 °F 58% 30.45 in 3.0 mi NW 20.7 mph - N/A   Haze
11:15 AM -20.2 °F -46.0 °F -31.0 °F 58% 30.45 in 10.0 mi NNW 16.1 mph - N/A   Clear
11:35 AM -20.2 °F -44.4 °F -29.2 °F 63% 30.46 in 10.0 mi NNW 13.8 mph - N/A   Clear
11:55 AM -18.4 °F -42.9 °F -29.2 °F 58% 30.45 in 10.0 mi NNW 15.0 mph - N/A   Clear
12:15 PM -18.4 °F -40.2 °F -29.2 °F 58% 30.45 in 10.0 mi WNW 11.5 mph - N/A   Clear
12:35 PM -16.6 °F -40.6 °F -29.2 °F 53% 30.45 in 10.0 mi WNW 15.0 mph - N/A   Clear
12:55 PM -16.6 °F -41.4 °F -27.4 °F 58% 30.45 in 10.0 mi NW 16.1 mph - N/A   Clear
1:15 PM -16.6 °F -37.9 °F -29.2 °F 53% 30.44 in 10.0 mi NW 11.5 mph 16.1 mph N/A   Clear
1:35 PM -14.8 °F -38.3 °F -27.4 °F 53% 30.42 in 10.0 mi NNW 15.0 mph - N/A   Clear
1:55 PM -14.8 °F -39.8 °F -25.6 °F 58% 30.42 in 10.0 mi NNW 17.3 mph 23.0 mph N/A   Clear
2:15 PM -14.8 °F -38.3 °F -25.6 °F 58% 30.42 in 10.0 mi NNW 15.0 mph - N/A   Clear
2:35 PM -13.0 °F -35.2 °F -25.6 °F 53% 30.42 in 10.0 mi NNW 13.8 mph - N/A   Clear
2:55 PM -13.0 °F -32.4 °F -25.6 °F 53% 30.41 in 10.0 mi NW 10.4 mph - N/A   Clear
3:15 PM - - - N/A% 30.41 in 10.0 mi WNW 12.7 mph - N/A   Clear
3:35 PM -11.2 °F -32.9 °F -25.6 °F 49% 30.41 in 10.0 mi NW 13.8 mph 19.6 mph N/A   Clear
3:55 PM -11.2 °F -31.1 °F -25.6 °F 49% 30.41 in 10.0 mi NNW 11.5 mph - N/A   Clear
4:15 PM -11.2 °F -27.8 °F -23.8 °F 54% 30.41 in 10.0 mi NNW 8.1 mph - N/A   Clear
4:35 PM -11.2 °F -32.9 °F -27.4 °F 45% 30.41 in 10.0 mi WNW 13.8 mph - N/A   Clear
4:55 PM -11.2 °F -30.1 °F -25.6 °F 49% 30.41 in 10.0 mi WNW 10.4 mph - N/A   Clear
5:15 PM -11.2 °F -32.1 °F -25.6 °F 49% 30.40 in 10.0 mi West 12.7 mph - N/A   Clear
5:35 PM - - - N/A% 30.39 in 10.0 mi West 11.5 mph - N/A   Clear
5:55 PM -13.0 °F -34.3 °F -27.4 °F 49% 30.40 in 10.0 mi West 12.7 mph - N/A   Clear
6:15 PM -14.8 °F -34.6 °F -25.6 °F 58% 30.40 in 10.0 mi West 10.4 mph - N/A   Clear
6:35 PM -14.8 °F -33.5 °F -27.4 °F 53% 30.40 in 10.0 mi West 9.2 mph - N/A   Clear
6:55 PM -16.6 °F -38.9 °F -27.4 °F 58% 30.39 in 10.0 mi West 12.7 mph - N/A   Clear
7:15 PM -16.6 °F -39.8 °F -27.4 °F 58% 30.40 in 10.0 mi West 13.8 mph - N/A   Clear
7:35 PM -16.6 °F -39.8 °F -27.4 °F 58% 30.40 in 10.0 mi West 13.8 mph - N/A   Clear
7:55 PM -18.4 °F -42.9 °F -27.4 °F 63% 30.40 in 10.0 mi West 15.0 mph - N/A   Clear
8:15 PM -18.4 °F -41.2 °F -27.4 °F 63% 30.40 in 10.0 mi WSW 12.7 mph - N/A   Clear
8:35 PM -18.4 °F -42.1 °F -27.4 °F 63% 30.39 in 10.0 mi WSW 13.8 mph - N/A   Clear
8:55 PM -18.4 °F -41.2 °F -27.4 °F 63% 30.39 in 10.0 mi WSW 12.7 mph - N/A   Clear
9:15 PM -20.2 °F -42.4 °F -27.4 °F 69% 30.39 in 10.0 mi West 11.5 mph - N/A   Clear
9:35 PM -20.2 °F -43.4 °F -27.4 °F 69% 30.39 in 10.0 mi West 12.7 mph - N/A   Clear
9:55 PM -18.4 °F -42.1 °F -27.4 °F 63% 30.39 in 10.0 mi West 13.8 mph - N/A   Clear
10:15 PM -18.4 °F -41.2 °F -27.4 °F 63% 30.39 in 10.0 mi WNW 12.7 mph - N/A   Clear
10:35 PM -18.4 °F -42.1 °F -27.4 °F 63% 30.39 in 10.0 mi West 13.8 mph - N/A   Clear
10:55 PM -18.4 °F -41.2 °F -27.4 °F 63% 30.39 in 10.0 mi West 12.7 mph - N/A   Clear
11:15 PM -18.4 °F -41.2 °F -27.4 °F 63% 30.38 in 10.0 mi WNW 12.7 mph - N/A   Clear
11:35 PM -18.4 °F -41.2 °F -27.4 °F 63% 30.38 in 10.0 mi WNW 12.7 mph - N/A   Clear
11:55 PM -18.4 °F -41.2 °F -27.4 °F 63% 30.38 in 10.0 mi WNW 12.7 mph - N/A   Clear